sat.trackr.live / text

‹ back to catalog

GONETS-M 23

NORAD 54150 · 2022-139A

PAYLOAD ACTIVE UNKNOWN

§ Identity

Operator
Country
CIS
Launch date
2022-10-22
Launch site
VOSTO
Launch vehicle
Mass (kg)
RCS (m²)

External: N2YO · Heavens-Above · Gunter

§ Orbital elements

Epoch: 2026-09-20T21:25:49.999584Z

Period
115.86 min
Inclination
82.5026°
Eccentricity
0.0021585
Mean motion
12.42893473 rev/d
Perigee alt
1,477.4 km
Apogee alt
1,511.4 km
Semi-major
7,872.5 km
B*
1.3273e-4
RAAN
288.8248°
Arg perigee
16.3370°
Mean anomaly
343.8401°
Rev number
17,753

§ Raw data

GONETS-M 231 54150U 22139A   26263.89293981  .00000028  00000+0  13273-3 0  99982 54150  82.5026 288.8248 0021585  16.3370 343.8401 12.42893473177530

JSON: /api/v1/satellites/54150 · /tle

For live sub-satellite position, see the globe view (requires WebGL).

§ Visibility from observer

Set your observer location to see the next 7 days of passes ≥ 10°. The values pass through the URL so the page stays shareable.

No JS? Fill the form by hand. The geolocation button needs JavaScript.

§ Radio — SatNOGS DB

ModeDescriptionDownlinkUplink
FM UHF Unknown 387.175 MHz
FM UHF Unknown 387.775 MHz
FM UHF Unknown 388.687 MHz
FM UHF Unknown 388.787 MHz

4 transmitters · refreshed weekly from db.satnogs.org